Back to catalog

SL-8 DEB

AliveLEO
NORAD 23007·DEBRIS·🇷🇺 Russia

Launched Jun 16, 1993 from Plesetsk Cosmodrome

Loading…

Next Passes (next 24 hours)

TLE

FreshSource: Space-Track

Epoch: Sep 14, 2026, 09:31 UTC

1 23007U 93036C   26257.39670715  .00000655  00000-0  18093-3 0  9993
2 23007  74.0245 307.1341 0011452 241.4173 131.8714 14.48693045742990

Track SL-8 DEB in real time with AllMySat

Download on the App Store